Location: Newark
(26.2500°N, 17.3000°E)
Time: 00:18:53
(UTC+00:00)

N. Korean satellite - Visible Passes

Search period start: 22 September 2019 00:00
Search period end: 02 October 2019 00:00
Orbit: 455 x 509 km, 97.2° (Epoch: 21 September)

Date Brightness Start Highest point End Pass type
(mag) Time Alt. Az. Time Alt. Az. Time Alt. Az.
22 Sep 8.6 04:14:06 10° NNE 04:17:13 32° E 04:20:20 10° SSE visible
23 Sep 9.9 03:50:08 10° ENE 03:51:56 14° E 03:53:45 10° SE visible
26 Sep 9.2 04:06:47 10° NE 04:09:40 25° E 04:12:35 10° SSE visible
27 Sep 10.3 03:43:32 10° E 03:44:22 11° E 03:45:13 10° ESE visible
30 Sep 9.6 03:59:29 10° NE 04:02:06 20° E 04:04:44 10° SE visible
01 Oct 10.4 17:10:14 10° WSW 17:11:20 11° W 17:12:26 10° WNW visible
